Location: Byszew
(52.1813°N, 19.2693°E)
Time: 13:32:24
(UTC+00:00)

Aureole 2 Rocket - Pass Details

Date: 03 March 2021
Orbit: 276 x 344 km, 73.9° (Epoch: 12 April)

Event Time Altitude Azimuth Distance (km) Brightness Sun altitude
Rises 17:29:48 0° 332° (NNW) 2,001 6.1 -10.5°
Reaches altitude 10° 17:31:45 10° 330° (NNW) 1,158 5.0 -10.8°
Maximum altitude 17:34:14 65° 247° (WSW) 322 1.9 -11.2°
Drops below altitude 10° 17:36:37 10° 164° (SSE) 1,118 4.2 -11.6°
Enters shadow 17:37:42 - 162° (SSE) 1,582 5.0 -11.7°
